カタログに戻る

COSMOS 951 DEB

運用中PO
NORAD 37236·DEBRIS·🇷🇺 Russia

打ち上げ Sep 13, 1977 から Plesetsk Cosmodrome

Loading…

次のパス (今後24時間)

TLE

最新Source: Space-Track

元期: Sep 14, 2026, 12:27 UTC

1 37236U 77087D   26257.51910697  .00000517  00000-0  47481-3 0  9990
2 37236  82.9647  87.1653 0035086  48.6897 340.3503 13.80797652458488

AllMySatでCOSMOS 951 DEBをリアルタイム追跡

Download on the App Store